Simultaneous Nadir Overpasses (SNOs) Predictions

Prediction of SNOs between GOES-16 and TERRA Satellite Orbit:

Table of predicted SNOs for the next 14.0 days since TLE Epoch: 9/19/2025
Index Date Time (GOES-16) GOES-16 Lat,Lon TERRA Lat,Lon Distance(km) Time Diff (sec)
1 09/20/2025 16:10:26 0.07,-104.70 0.01,-104.40 34.21 80
2 09/23/2025 04:10:40 -0.08,-104.66 -0.05,-104.50 17.88 80
3 09/25/2025 16:10:46 0.08,-104.72 0.03,-104.58 17.09 80
4 09/28/2025 04:10:58 -0.10,-104.68 -0.08,-104.68 2.21 80
5 09/30/2025 16:11:03 0.11,-104.74 0.09,-104.75 2.30 80
6 10/03/2025 04:13:55 -0.11,-104.69 -0.14,-104.84 16.88 80
